Tracking 18840 objects as of 18-November-2017
HD Live streaming from Space Station
objects crossing your sky now

FENGYUN 1C DEB

Track FENGYUN 1C DEB now!
10-day predictions


NORAD ID: 30418
Int'l Code: 1999-025AEH
Perigee: 585.5 km
Apogee: 815.8 km
Inclination: 98.8 °
Period: 98.6 minutes
Semi major axis: 7071 km
RCS: 0.03 m2 (small)
Launch date: May 10, 1999
Source: People's Republic of China (PRC)
Launch site: Taiyaun Space Center, China (TSC)

Note: This is SATELLITE DEBRIS
aabbcc
Your satellite tracking list
Your tracking list is empty




NASA's NSSDC Master Catalog

Two Line Element Set (TLE):
1 30418U 99025AEH 17321.54066149  .00000453  00000-0  89923-4 0  9997
2 30418  98.7972 222.6798 0162858 218.0129 268.7700 14.59890634574723
Source of the keplerian elements: AFSPC